Temp
16 16 16 16 17 17 17 16 16 16 16 16 15 15 15 15 15 15 15 15 15 15 15 15 15 14 14 14 14 14 14 14 15 16 14 13 14 14 13 14 13 13 13
17 17 16 16 16 16 16 16 16 15 15 15 15 15 15 15 15 15 15 14 14 14 14 14 13 13 14 13 14 13 13 13 14 15 14 14 13 12 12 12 12 13 12
15 15 15 15 15 15 15 15 15 15 15 15 16 15 15 14 15 15 14 14 13 13 13 13 13 13 13 13 13 13 13 13 13 13 14 13 12 12 12 12 12 12 12
16 16 15 15 14 14 15 15 15 15 15 15 15 14 14 14 14 14 14 12 12 12 12 12 12 12 12 12 12 12 12 13 12 13 13 13 13 12 11 12 13 13 12
15 15 15 14 14 15 15 13 13 14 14 13 13 14 14 13 13 12 12 12 12 12 11 11 10 10 11 11 12 11 11 12 13 12 12 12 12 12 12 12 12 12 12
14 14 14 14 14 14 15 14 14 13 12 13 12 12 12 12 13 13 12 11 11 11 11 11 10 10 10 10 10 10 10 10 10 11 12 12 11 11 11 11 11 12 12
14 15 14 14 14 14 13 14 14 13 12 11 11 11 11 11 12 12 11 10 10 10 10 10 11 10 9 10 10 9 9 9 9 9 9 10 9 10 9 9 10 10 11
14 14 14 13 13 13 13 13 11 11 11 11 10 10 10 10 11 11 11 10 10 9 9 9 9 9 9 9 10 10 10 9 8 8 8 8 8 8 8 8 8 8 8
14 13 13 13 13 13 12 11 11 11 10 10 10 10 10 10 11 11 11 11 10 9 9 8 9 9 8 9 9 9 9 9 8 8 7 8 8 8 7 7 9 9 11
13 14 14 14 13 13 12 11 10 10 10 10 10 9 10 9 10 10 11 11 10 11 10 9 9 8 8 8 8 8 8 8 8 7 8 8 8 8 7 7 8 8 9
13 14 14 14 13 12 11 10 10 10 10 9 9 9 9 10 10 10 10 10 11 11 11 10 9 8 8 8 7 7 7 7 8 8 9 9 8 8 8 8 7 6 7
13 13 13 12 12 11 11 10 10 10 10 10 10 10 10 10 10 10 10 10 10 10 10 10 9 8 8 8 8 7 7 7 8 8 9 8 6 6 6 6 6 6 6
13 13 13 12 12 11 11 10 10 10 11 11 12 11 11 10 10 10 10 10 10 9 9 9 9 8 8 9 8 7 7 8 7 7 8 6 5 5 5 5 5 5 6
12 12 12 11 11 10 11 11 11 11 11 11 12 12 11 11 11 11 10 10 10 9 10 9 9 9 9 8 8 8 8 7 6 6 7 6 6 5 5 5 5 5 5
12 11 11 11 11 10 10 10 11 11 11 12 12 11 11 11 10 9 9 10 10 10 10 9 10 10 9 9 8 8 8 6 6 5 6 6 6 5 5 5 6 6 6
13 11 11 11 11 12 11 10 11 10 10 10 10 10 10 10 9 9 9 10 10 10 8 9 10 9 9 8 8 8 8 6 5 5 5 5 5 5 5 5 6 6 6
11 12 12 11 11 12 12 12 12 10 10 10 9 9 9 9 9 9 9 9 9 9 9 9 9 8 8 7 7 7 7 6 4 4 4 5 5 5 7 6 5 5 6
12 12 12 11 11 11 11 11 10 11 11 10 8 8 7 8 8 9 8 8 7 7 9 9 8 7 7 7 7 7 7 6 4 4 4 4 5 5 5 7 6 6 5
13 13 12 12 12 11 10 10 11 11 10 10 9 8 7 7 7 7 7 7 7 7 8 8 7 7 7 7 7 7 7 6 5 5 4 4 5 5 5 7 7 5 5
13 13 12 11 10 11 11 11 11 10 10 9 8 7 8 8 8 7 7 7 7 7 7 7 6 6 6 6 6 6 7 7 5 5 4 3 4 5 6 7 8 7 5
12 11 11 12 12 11 11 10 10 9 8 7 7 5 5 7 7 6 6 6 6 6 5 5 5 6 6 6 6 6 6 6 5 4 3 3 4 5 5 6 8 7 5
12 12 12 11 11 10 10 10 9 9 8 8 7 5 5 6 6 5 5 5 4 4 4 4 5 5 5 5 4 5 5 5 4 4 4 4 4 5 5 6 7 7 7
12 12 11 11 10 9 9 9 9 8 8 7 7 6 6 6 6 5 5 4 4 4 4 4 4 5 4 4 3 3 4 3 5 6 4 4 5 5 5 6 6 7 7
12 12 12 11 10 10 10 9 8 7 8 7 6 6 6 6 6 5 5 5 5 5 4 4 4 3 3 3 3 2 4 5 6 5 4 4 5 6 8 8 7 7 7
13 12 12 11 10 10 9 9 9 8 8 7 6 6 6 6 6 5 5 5 5 5 4 4 3 3 3 3 3 4 5 5 6 6 7 6 6 7 8 9 9 9 7
12 12 11 11 10 10 10 9 9 8 8 7 7 6 6 6 6 5 5 5 5 4 4 4 3 2 2 3 4 5 5 6 6 6 7 6 7 8 8 8 10 9 8
Height
775 775 778 780 782 782 783 784 784 784 783 783 783 784 783 784 785 786 785 787 791 794 796 798 798 800 801 800 803 804 805 808 809 810 811 810 809 807 808 807 807 804 805
780 780 780 782 783 784 785 784 784 785 786 787 788 787 788 789 792 790 794 794 798 796 800 800 802 804 804 804 804 806 809 809 809 810 808 807 807 806 806 808 804 804 804
786 785 784 785 786 787 788 788 789 790 790 791 791 793 796 797 798 795 801 802 803 802 803 805 806 806 806 806 806 808 809 808 809 808 804 806 806 805 804 803 801 800 799
791 791 790 790 791 792 793 794 794 795 795 797 797 799 801 802 801 802 805 806 806 808 807 807 807 807 808 808 808 809 808 807 806 803 802 804 804 803 801 799 797 796 794
796 797 796 796 798 798 799 801 801 801 802 804 803 804 805 806 807 807 809 809 809 810 809 809 810 809 809 809 809 809 809 806 805 804 804 804 802 799 798 797 795 794 791
800 802 802 802 804 805 804 805 805 806 808 807 808 810 811 812 813 811 811 812 813 813 814 814 814 814 813 811 812 811 811 809 808 806 804 803 801 800 798 795 794 790 786
805 808 807 807 807 808 810 809 809 811 812 814 817 817 817 818 818 817 816 816 817 817 817 817 817 816 816 815 814 813 812 811 809 808 807 804 802 799 798 794 791 790 785
810 810 811 811 812 815 815 815 817 818 819 820 822 824 823 823 824 823 821 821 821 821 821 822 821 821 819 818 816 815 814 812 810 808 805 802 799 796 795 792 789 785 782
813 813 815 816 817 819 820 822 823 823 825 825 826 828 828 828 828 828 827 826 825 826 826 825 825 824 822 820 818 816 814 811 808 804 800 797 795 793 791 788 783 780 774
817 816 819 820 821 822 823 825 827 829 831 831 831 831 831 832 831 830 830 829 828 829 830 829 827 825 823 821 820 817 814 811 807 803 799 796 793 790 787 784 781 777 773
821 822 823 824 825 826 827 829 830 832 833 833 834 834 835 834 833 834 834 834 832 832 832 830 829 827 825 823 820 818 816 811 807 803 799 795 791 787 784 781 778 775 771
826 826 828 829 829 829 830 832 833 835 836 836 836 838 838 837 836 835 835 834 834 834 833 831 831 829 827 824 822 819 815 811 807 803 799 796 791 787 782 778 774 770 767
829 830 831 832 832 833 833 835 837 837 838 839 838 839 840 839 838 837 836 834 834 834 834 832 831 829 827 825 822 818 814 811 808 804 800 796 791 786 780 774 769 764 760
831 832 833 833 835 836 836 837 839 839 839 840 840 840 840 840 839 839 838 836 834 834 833 832 831 829 827 825 822 818 815 813 809 805 800 796 790 783 777 772 767 760 755
833 835 836 836 837 837 838 839 841 840 841 841 841 840 841 841 840 839 838 836 835 834 833 832 831 830 827 825 822 819 815 812 808 805 800 795 789 783 778 772 766 759 754
832 835 836 837 836 839 839 840 840 841 841 841 841 841 841 841 840 839 837 836 834 834 833 833 832 831 829 826 823 819 816 813 808 804 800 795 790 784 779 773 767 760 755
832 835 836 837 838 840 840 841 841 842 842 842 841 841 841 840 838 837 836 836 835 835 835 834 833 832 830 827 824 820 817 814 809 804 800 796 791 786 780 775 770 764 759
834 836 838 838 839 840 840 840 841 842 842 843 842 842 841 840 837 836 836 837 837 836 835 834 833 833 830 828 824 821 818 814 809 804 800 796 792 788 783 777 773 768 763
836 838 839 840 840 840 840 842 842 842 843 843 843 843 842 840 839 838 838 838 838 837 836 835 834 832 830 828 825 821 818 815 811 806 801 797 794 790 785 780 775 772 767
837 838 839 839 840 841 842 843 843 843 844 844 844 844 843 842 841 840 840 839 838 837 836 835 834 832 830 828 825 822 818 815 811 807 802 798 795 791 787 782 777 774 770
838 839 840 841 842 842 843 843 844 844 844 845 846 845 844 843 842 841 841 840 839 838 837 836 835 833 831 828 826 823 820 816 812 808 804 800 796 791 788 784 779 776 774
839 840 841 842 843 844 844 845 845 845 846 846 846 846 845 844 843 843 842 842 841 839 838 837 835 834 832 830 827 824 821 817 812 808 805 801 797 793 788 785 782 779 776
840 841 842 844 845 845 846 846 847 847 848 848 847 847 847 846 845 844 844 843 842 840 839 838 837 835 833 831 828 825 822 818 813 809 804 800 796 794 790 786 784 782 779
841 841 843 844 846 846 847 848 848 849 849 848 848 848 848 847 846 845 844 843 842 841 840 839 838 836 834 831 829 825 821 818 813 809 806 802 798 794 791 788 785 784 781
840 841 843 844 846 847 848 848 849 850 850 849 849 849 848 847 847 846 845 844 843 842 841 839 838 836 834 831 829 826 822 819 814 810 806 803 799 796 792 788 786 783 782
840 841 842 844 845 847 848 848 849 850 850 850 850 849 849 848 847 846 845 845 844 843 841 840 838 836 833 831 828 826 822 819 815 812 808 805 802 798 794 790 786 784 782
Wind_Speed
21 17 13 10 5 6 5 3 7 9 8 9 13 17 20 18 18 24 24 24 23 19 15 13 12 8 7 8 5 4 2 1 4 6 6 5 6 6 7 9 9 11 10
14 11 9 6 8 8 7 9 16 20 23 23 23 24 23 22 19 23 21 19 15 16 12 11 7 4 4 5 5 4 2 2 6 8 5 4 3 4 5 7 7 8 11
15 18 19 17 16 16 18 21 23 23 23 23 23 22 20 20 20 21 17 17 15 14 11 9 7 6 5 5 5 4 3 2 3 6 7 5 6 7 9 10 9 11 11
14 14 15 16 19 22 24 24 23 22 22 22 24 24 23 21 20 18 15 14 13 12 12 12 12 11 9 6 5 5 4 4 4 5 6 8 8 9 10 12 14 14 16
12 13 16 20 20 23 22 19 19 23 23 20 23 24 22 21 16 15 14 14 15 14 15 14 15 14 14 13 10 10 10 9 9 9 9 9 11 12 15 14 14 16 16
15 14 15 17 18 19 21 21 22 23 18 21 20 19 20 19 17 17 16 16 16 16 14 13 12 14 15 16 14 12 11 10 9 10 10 12 13 14 14 14 17 17 14
17 12 13 15 17 17 18 22 22 21 20 20 19 19 20 19 17 18 19 18 17 16 15 12 10 12 13 12 13 14 13 13 12 9 11 12 14 15 16 17 17 18 20
14 15 13 14 16 16 17 18 16 16 17 17 17 16 17 19 17 19 21 18 17 17 16 15 14 14 15 12 11 11 11 11 13 12 12 15 15 16 16 18 19 18 19
12 11 11 13 15 14 14 13 13 16 15 15 15 14 16 17 15 15 15 15 16 15 14 16 14 14 16 15 13 14 15 17 19 20 20 16 14 14 13 13 17 18 18
12 14 14 14 12 12 13 12 13 13 13 13 14 14 15 13 12 12 12 12 14 13 12 12 15 14 13 14 13 14 16 20 20 18 16 15 13 14 15 12 17 18 19
17 17 14 10 10 9 11 11 12 12 12 13 13 12 12 12 12 9 7 6 7 8 9 10 11 12 11 11 12 13 16 20 16 16 16 16 15 16 16 17 16 16 18
14 10 8 7 7 8 11 11 11 11 11 9 10 8 7 6 6 7 7 2 1 3 5 6 6 9 11 13 12 13 18 15 14 14 16 18 18 19 19 19 20 20 19
11 9 7 7 7 7 10 10 8 8 7 7 6 5 3 3 4 6 7 1 1 1 2 2 4 6 11 12 13 17 15 14 14 14 15 17 17 20 24 25 23 24 20
10 11 9 9 10 7 7 7 7 6 5 5 4 3 2 2 4 5 6 3 2 1 3 3 3 5 10 13 14 15 13 13 14 14 16 18 18 22 24 24 23 23 19
7 8 9 8 7 7 7 7 4 4 3 3 2 2 0 2 4 6 8 6 5 4 4 3 5 8 11 14 15 14 13 15 15 14 15 18 19 23 22 24 22 21 15
6 9 11 9 9 8 8 7 5 4 3 1 1 2 2 3 5 4 5 7 6 5 3 3 6 9 12 14 14 14 13 15 15 14 14 17 19 21 23 24 23 23 18
8 12 12 9 8 8 6 5 5 4 4 3 2 1 4 8 8 4 4 4 3 2 3 4 6 8 11 12 14 13 13 14 15 13 14 17 17 18 20 21 21 19 19
11 12 10 7 6 6 4 4 3 2 2 2 5 5 6 7 8 5 1 2 4 6 4 5 6 8 10 13 13 14 13 13 16 14 16 16 16 17 18 20 19 18 17
9 8 7 6 4 4 4 5 4 6 5 5 3 6 8 9 9 10 8 6 5 5 6 7 7 8 10 12 13 13 12 13 15 14 17 15 15 15 18 17 16 17 15
9 8 5 6 6 6 6 6 5 5 5 6 7 7 7 6 7 7 7 6 5 6 7 8 8 9 11 12 13 13 13 13 14 14 15 16 14 14 15 16 17 17 15
6 7 8 6 6 6 6 6 5 6 6 7 7 7 8 6 6 6 5 5 6 6 7 8 8 10 11 11 12 12 13 13 14 14 15 15 15 18 15 14 16 15 15
6 7 7 7 7 6 6 6 6 6 6 5 5 6 9 7 7 8 8 8 8 6 6 7 8 9 9 11 12 13 13 13 15 16 15 15 16 15 18 14 13 15 15
8 8 8 8 7 7 6 6 6 6 5 5 5 5 6 7 7 7 6 7 7 7 7 8 9 8 9 10 11 11 12 14 17 18 17 18 18 14 13 14 8 10 12
8 9 8 8 6 5 5 5 5 5 5 5 5 5 5 5 6 6 6 6 6 6 7 8 8 9 9 10 10 12 15 17 16 15 15 14 16 16 12 10 6 6 7
7 8 7 6 5 3 4 3 4 4 4 5 5 5 5 5 5 6 6 5 5 5 7 7 7 9 9 9 11 13 14 15 16 16 15 12 12 14 13 8 10 9 6
7 7 6 5 5 4 3 2 2 2 2 2 2 3 3 3 4 4 5 5 5 6 6 6 7 9 9 9 11 12 13 14 14 13 13 13 13 14 16 14 10 6 8
Wind_Direction
80 79 87 97 70 13 22 32 11 16 25 66 81 82 80 79 86 85 84 87 88 94 95 87 83 85 88 101 104 123 140 252 261 253 262 274 289 310 312 309 310 314 311
64 60 61 51 60 69 63 77 85 88 91 87 83 80 79 85 85 88 89 94 97 93 87 88 73 56 48 56 57 33 331 275 280 274 268 267 290 318 310 302 310 300 306
69 77 79 81 86 89 96 104 105 97 89 86 84 82 85 88 92 90 87 82 78 73 70 66 55 46 40 30 23 2 352 321 270 281 305 310 306 310 314 311 314 310 309
70 77 82 94 102 106 106 103 100 97 94 91 90 89 86 83 80 80 75 70 68 63 62 55 47 40 30 29 46 43 29 359 357 330 315 314 305 310 309 306 308 307 307
77 78 87 95 95 104 102 95 99 99 96 90 88 83 76 70 66 69 66 62 59 56 54 57 57 60 57 52 38 26 12 353 341 335 326 310 312 315 318 313 298 305 306
98 94 97 99 99 98 103 101 97 97 85 83 78 77 72 66 62 62 69 67 61 56 53 53 52 52 44 44 44 41 33 19 3 346 331 326 319 314 307 310 308 308 305
97 97 99 104 106 105 106 104 100 92 89 82 79 76 73 69 65 67 71 67 61 53 45 39 35 30 28 29 27 30 27 25 19 357 334 325 312 315 310 302 297 296 294
94 96 97 99 99 102 101 96 91 92 91 91 84 78 78 73 74 78 74 67 58 53 49 49 49 42 33 28 20 17 14 8 357 343 325 315 308 305 300 294 293 294 292
103 95 86 99 104 109 105 103 99 101 99 95 89 85 84 82 85 79 74 63 61 60 56 52 50 44 37 36 29 17 5 356 346 339 333 325 314 305 306 300 291 297 294
94 102 112 113 105 106 112 114 115 109 103 98 94 92 90 84 90 72 60 55 55 53 50 47 36 32 23 17 15 8 358 347 339 337 338 333 325 313 308 289 291 286 291
97 101 102 98 101 109 115 120 125 117 110 101 96 88 81 77 72 62 52 47 53 50 47 46 38 29 19 10 11 1 349 340 340 339 341 340 333 328 323 316 309 293 286
106 106 80 78 94 109 123 128 129 123 109 105 101 91 80 78 58 30 8 3 51 22 30 37 28 27 18 10 6 349 348 354 349 349 351 347 335 329 328 324 311 300 292
129 145 124 110 110 116 129 134 133 127 124 117 107 98 86 31 5 359 356 331 198 277 310 324 346 359 7 2 356 356 359 353 347 343 344 339 333 332 327 328 327 320 310
141 141 138 130 134 137 135 140 158 155 149 150 148 119 77 18 356 342 341 337 263 270 323 317 317 345 3 359 355 354 355 351 342 339 337 337 335 335 333 339 330 331 322
147 155 155 145 142 137 146 135 154 149 171 177 197 175 306 337 359 353 342 344 336 320 331 348 352 357 353 353 351 354 354 352 351 348 344 346 348 345 343 351 346 336 330
173 162 164 157 133 126 127 131 130 152 167 131 210 201 274 324 327 314 349 349 347 346 12 20 5 357 360 356 354 353 355 352 348 345 344 348 348 345 345 351 354 354 355
166 168 171 156 134 128 124 136 143 113 99 86 69 28 316 304 313 291 306 322 330 14 81 21 9 4 360 357 353 351 348 346 349 345 345 347 350 348 355 360 357 358 359
149 163 160 141 141 125 130 129 123 155 157 115 46 59 46 35 25 26 127 84 58 59 26 10 3 357 354 352 348 345 345 344 352 351 350 350 347 348 346 360 1 360 360
115 130 141 131 120 140 130 114 111 96 86 75 83 53 41 39 46 60 75 72 59 34 7 356 351 349 349 346 343 344 345 344 345 344 350 350 349 347 348 354 6 5 1
103 117 134 137 117 114 107 101 88 75 69 62 55 37 21 21 24 28 36 35 20 9 359 352 348 347 347 345 345 345 347 348 346 349 348 352 352 349 345 350 7 9 9
114 111 111 110 112 110 102 82 66 60 64 61 55 37 28 11 7 12 10 8 3 356 356 355 348 346 347 348 349 348 345 347 347 348 346 345 346 352 349 345 11 16 18
115 121 113 108 107 98 85 70 63 62 56 46 38 28 47 49 44 39 35 30 17 17 14 3 357 353 355 352 350 349 349 346 350 350 346 344 343 343 356 355 8 13 23
126 121 116 109 103 97 83 75 70 65 57 54 62 56 43 47 48 47 42 36 34 31 26 11 6 4 358 356 355 354 349 346 348 352 345 341 346 344 342 1 11 19 30
138 120 123 121 117 103 97 90 83 77 72 73 70 51 46 43 42 39 36 34 29 26 16 10 5 2 358 360 357 355 1 358 358 350 338 338 342 348 343 2 13 30 28
159 143 139 144 148 131 121 114 93 93 81 73 68 61 52 46 41 36 30 23 15 10 359 1 359 356 352 355 356 2 3 3 4 4 10 3 349 349 349 350 4 16 28
179 172 171 170 172 175 165 157 140 127 112 90 65 51 41 35 31 22 16 13 8 357 354 354 353 353 357 356 359 360 3 5 5 5 10 8 4 12 13 10 12 11 8